Time,TemperatureF,DewpointF,PressureIn,WindDirection,WindDirectionDegrees,WindSpeedMPH,WindSpeedGustMPH,Humidity,HourlyPrecipIn,Conditions,Clouds,dailyrainin,SoftwareType,DateUTC
2013-03-23 00:02:00,31.3,-11.1,30.09,NE,34,2.3,0.0,15,0.00,BKN,OVC,0.00,WeatherDisplay:10.37,2013-03-23 05:02:00,
2013-03-23 00:07:00,31.3,-11.1,30.09,NNE,27,0.0,0.0,15,0.00,OVC,,0.00,WeatherDisplay:10.37,2013-03-23 05:07:00,
2013-03-23 00:12:00,31.3,-11.1,30.09,NE,35,0.0,0.0,15,0.00,OVC,,0.00,WeatherDisplay:10.37,2013-03-23 05:12:00,
2013-03-23 00:18:00,31.3,-11.1,30.09,NE,50,0.0,0.0,15,0.00,OVC,,0.00,WeatherDisplay:10.37,2013-03-23 05:18:00,
2013-03-23 00:23:00,31.3,-11.1,30.09,NE,51,0.0,0.0,15,0.00,OVC,,0.00,WeatherDisplay:10.37,2013-03-23 05:23:00,
2013-03-23 00:28:00,31.1,-11.3,30.09,ENE,62,0.0,0.0,15,0.00,OVC,,0.00,WeatherDisplay:10.37,2013-03-23 05:28:00,
2013-03-23 00:33:00,31.1,-11.3,30.09,NE,34,0.0,0.0,15,0.00,OVC,,0.00,WeatherDisplay:10.37,2013-03-23 05:33:00,
2013-03-23 00:38:00,31.1,-11.3,30.09,NNE,22,0.0,0.0,15,0.00,OVC,,0.00,WeatherDisplay:10.37,2013-03-23 05:38:00,
2013-03-23 00:43:00,31.1,-11.3,30.09,ENE,58,0.0,0.0,15,0.00,OVC,,0.00,WeatherDisplay:10.37,2013-03-23 05:43:00,
2013-03-23 00:48:00,31.1,-11.3,30.09,NE,52,0.0,0.0,15,0.00,OVC,,0.00,WeatherDisplay:10.37,2013-03-23 05:48:00,
2013-03-23 00:53:00,31.1,-11.3,30.09,NNE,27,0.0,0.0,15,0.00,OVC,,0.00,WeatherDisplay:10.37,2013-03-23 05:53:00,
2013-03-23 00:58:00,31.1,-11.3,30.09,ENE,74,0.0,0.0,15,0.00,OVC,,0.00,WeatherDisplay:10.37,2013-03-23 05:58:00,
2013-03-23 01:03:00,31.1,-11.3,30.09,NE,36,0.0,0.0,15,0.00,OVC,,0.00,WeatherDisplay:10.37,2013-03-23 06:03:00,
2013-03-23 01:08:00,31.1,-11.3,30.09,NE,37,0.0,0.0,15,0.00,OVC,,0.00,WeatherDisplay:10.37,2013-03-23 06:08:00,
2013-03-23 01:13:00,31.1,-11.3,30.12,NE,51,0.0,0.0,15,0.00,OVC,,0.00,WeatherDisplay:10.37,2013-03-23 06:13:00,
2013-03-23 01:18:00,31.1,-11.3,30.12,NE,36,0.0,0.0,15,0.00,OVC,,0.00,WeatherDisplay:10.37,2013-03-23 06:18:00,
2013-03-23 01:23:00,31.1,-11.3,30.12,NE,38,0.0,0.0,15,0.00,OVC,,0.00,WeatherDisplay:10.37,2013-03-23 06:23:00,
2013-03-23 01:28:00,31.1,-11.3,30.09,NE,37,0.0,0.0,15,0.00,OVC,,0.00,WeatherDisplay:10.37,2013-03-23 06:28:00,
2013-03-23 01:33:00,31.1,-11.3,30.09,NE,43,0.0,0.0,15,0.00,OVC,,0.00,WeatherDisplay:10.37,2013-03-23 06:33:00,
2013-03-23 01:38:00,30.9,-11.4,30.09,ENE,63,0.0,0.0,15,0.00,OVC,,0.00,WeatherDisplay:10.37,2013-03-23 06:38:00,
2013-03-23 01:43:00,30.9,-11.4,30.09,NNE,22,0.0,0.0,15,0.00,OVC,,0.00,WeatherDisplay:10.37,2013-03-23 06:43:00,
2013-03-23 01:48:00,30.9,-11.4,30.09,NNE,21,0.0,0.0,15,0.00,OVC,,0.00,WeatherDisplay:10.37,2013-03-23 06:48:00,
2013-03-23 01:53:00,30.9,-11.4,30.09,ENE,70,0.0,0.0,15,0.00,OVC,,0.00,WeatherDisplay:10.37,2013-03-23 06:53:00,
2013-03-23 01:58:00,30.9,-11.4,30.09,ENE,70,0.0,0.0,15,0.00,OVC,,0.00,WeatherDisplay:10.37,2013-03-23 06:58:00,
2013-03-23 02:03:00,30.9,-11.4,30.09,ENE,70,0.0,0.0,15,0.00,OVC,,0.00,WeatherDisplay:10.37,2013-03-23 07:03:00,
2013-03-23 02:08:00,30.9,-11.4,30.09,ENE,71,0.0,0.0,15,0.00,OVC,,0.00,WeatherDisplay:10.37,2013-03-23 07:08:00,
2013-03-23 02:13:00,30.9,-11.4,30.09,ENE,71,0.0,0.0,15,0.00,OVC,,0.00,WeatherDisplay:10.37,2013-03-23 07:13:00,
2013-03-23 02:18:00,30.9,-11.4,30.09,ENE,71,0.0,0.0,15,0.00,OVC,,0.00,WeatherDisplay:10.37,2013-03-23 07:18:00,
2013-03-23 02:23:00,30.7,-11.6,30.09,ENE,70,0.0,0.0,15,0.00,OVC,,0.00,WeatherDisplay:10.37,2013-03-23 07:23:00,
2013-03-23 02:28:00,30.7,-11.6,30.09,ENE,71,0.0,0.0,15,0.00,OVC,,0.00,WeatherDisplay:10.37,2013-03-23 07:28:00,
2013-03-23 02:34:00,30.7,-11.6,30.09,ENE,71,0.0,0.0,15,0.00,OVC,,0.00,WeatherDisplay:10.37,2013-03-23 07:34:00,
2013-03-23 02:39:00,30.7,-11.6,30.09,ENE,70,0.0,0.0,15,0.00,OVC,,0.00,WeatherDisplay:10.37,2013-03-23 07:39:00,
2013-03-23 02:44:00,30.7,-11.6,30.09,ENE,69,0.0,0.0,15,0.00,OVC,,0.00,WeatherDisplay:10.37,2013-03-23 07:44:00,
2013-03-23 02:49:00,30.7,-11.6,30.09,ENE,69,0.0,0.0,15,0.00,OVC,,0.00,WeatherDisplay:10.37,2013-03-23 07:49:00,
2013-03-23 02:54:00,30.7,-11.6,30.09,ENE,68,0.0,0.0,15,0.00,OVC,,0.00,WeatherDisplay:10.37,2013-03-23 07:54:00,
2013-03-23 02:59:00,30.6,-11.7,30.09,ENE,69,0.0,0.0,15,0.00,OVC,,0.00,WeatherDisplay:10.37,2013-03-23 07:59:00,
2013-03-23 03:04:00,30.6,-11.7,30.09,ENE,71,0.0,0.0,15,0.00,OVC,,0.00,WeatherDisplay:10.37,2013-03-23 08:04:00,
2013-03-23 03:09:00,30.6,-11.7,30.09,ENE,71,0.0,0.0,15,0.00,OVC,,0.00,WeatherDisplay:10.37,2013-03-23 08:09:00,
2013-03-23 03:14:00,30.6,-11.7,30.09,ENE,71,0.0,0.0,15,0.00,OVC,,0.00,WeatherDisplay:10.37,2013-03-23 08:14:00,
2013-03-23 03:19:00,30.4,-11.9,30.09,ENE,70,0.0,0.0,15,0.00,OVC,,0.00,WeatherDisplay:10.37,2013-03-23 08:19:00,
2013-03-23 03:24:00,30.4,-11.9,30.09,ENE,69,0.0,0.0,15,0.00,OVC,,0.00,WeatherDisplay:10.37,2013-03-23 08:24:00,
2013-03-23 03:29:00,30.2,-12.0,30.09,ENE,70,0.0,0.0,15,0.00,OVC,,0.00,WeatherDisplay:10.37,2013-03-23 08:29:00,
2013-03-23 03:34:00,30.2,-12.0,30.09,ENE,70,0.0,0.0,15,0.00,OVC,,0.00,WeatherDisplay:10.37,2013-03-23 08:34:00,
2013-03-23 03:39:00,30.2,-12.0,30.09,ENE,69,0.0,0.0,15,0.00,OVC,,0.00,WeatherDisplay:10.37,2013-03-23 08:39:00,
2013-03-23 03:44:00,30.0,-12.2,30.09,ENE,70,0.0,0.0,15,0.00,OVC,,0.00,WeatherDisplay:10.37,2013-03-23 08:44:00,
2013-03-23 03:49:00,30.0,-12.2,30.09,ENE,71,0.0,0.0,15,0.00,OVC,,0.00,WeatherDisplay:10.37,2013-03-23 08:49:00,
2013-03-23 03:54:00,29.8,-12.3,30.09,ENE,71,0.0,0.0,15,0.00,OVC,,0.00,WeatherDisplay:10.37,2013-03-23 08:54:00,
2013-03-23 03:59:00,29.8,-12.3,30.09,ENE,71,0.0,0.0,15,0.00,OVC,,0.00,WeatherDisplay:10.37,2013-03-23 08:59:00,
2013-03-23 04:04:00,29.7,-12.4,30.09,ENE,70,0.0,0.0,15,0.00,OVC,,0.00,WeatherDisplay:10.37,2013-03-23 09:04:00,
2013-03-23 04:09:00,29.5,-12.6,30.09,ENE,72,0.0,0.0,15,0.00,OVC,,0.00,WeatherDisplay:10.37,2013-03-23 09:09:00,
2013-03-23 04:14:00,29.5,-12.6,30.09,ENE,70,0.0,0.0,15,0.00,OVC,,0.00,WeatherDisplay:10.37,2013-03-23 09:14:00,
2013-03-23 04:19:00,29.5,-12.6,30.09,ENE,69,0.0,0.0,15,0.00,OVC,,0.00,WeatherDisplay:10.37,2013-03-23 09:19:00,
2013-03-23 04:24:00,29.3,-12.7,30.09,ENE,71,0.0,0.0,15,0.00,OVC,,0.00,WeatherDisplay:10.37,2013-03-23 09:24:00,
2013-03-23 04:30:00,28.9,-13.0,30.06,ENE,71,0.0,0.0,15,0.00,OVC,,0.00,WeatherDisplay:10.37,2013-03-23 09:30:00,
2013-03-23 04:35:00,28.8,-13.2,30.06,ENE,71,0.0,0.0,15,0.00,OVC,,0.00,WeatherDisplay:10.37,2013-03-23 09:35:00,
2013-03-23 04:40:00,28.6,-13.3,30.06,ENE,71,0.0,0.0,15,0.00,OVC,,0.00,WeatherDisplay:10.37,2013-03-23 09:40:00,
2013-03-23 04:45:00,28.4,-12.2,30.09,ENE,70,0.0,0.0,16,0.00,OVC,,0.00,WeatherDisplay:10.37,2013-03-23 09:45:00,
2013-03-23 04:50:00,28.2,-12.3,30.09,ENE,68,0.0,0.0,16,0.00,OVC,,0.00,WeatherDisplay:10.37,2013-03-23 09:50:00,
2013-03-23 04:55:00,27.9,-12.6,30.09,ENE,70,0.0,0.0,16,0.00,OVC,,0.00,WeatherDisplay:10.37,2013-03-23 09:55:00,
2013-03-23 05:00:00,27.9,-12.6,30.09,ENE,71,0.0,0.0,16,0.00,OVC,,0.00,WeatherDisplay:10.37,2013-03-23 10:00:00,
2013-03-23 05:05:00,27.9,-12.6,30.09,ENE,71,0.0,0.0,16,0.00,OVC,,0.00,WeatherDisplay:10.37,2013-03-23 10:05:00,
2013-03-23 05:10:00,27.7,-12.8,30.09,ENE,72,0.0,0.0,16,0.00,OVC,,0.00,WeatherDisplay:10.37,2013-03-23 10:10:00,
2013-03-23 05:15:00,27.7,-10.4,30.12,ENE,70,0.0,0.0,18,0.00,OVC,,0.00,WeatherDisplay:10.37,2013-03-23 10:15:00,
2013-03-23 05:20:00,27.5,-10.6,30.12,ENE,71,0.0,0.0,18,0.00,OVC,,0.00,WeatherDisplay:10.37,2013-03-23 10:20:00,
2013-03-23 05:25:00,27.3,-10.7,30.12,ENE,68,0.0,0.0,18,0.00,OVC,,0.00,WeatherDisplay:10.37,2013-03-23 10:25:00,
2013-03-23 05:30:00,27.1,-10.9,30.12,ENE,69,0.0,0.0,18,0.00,OVC,,0.00,WeatherDisplay:10.37,2013-03-23 10:30:00,
2013-03-23 05:35:00,27.0,-11.0,30.12,ENE,67,0.0,0.0,18,0.00,OVC,,0.00,WeatherDisplay:10.37,2013-03-23 10:35:00,
2013-03-23 05:40:00,27.0,-11.0,30.12,ENE,70,0.0,0.0,18,0.00,OVC,,0.00,WeatherDisplay:10.37,2013-03-23 10:40:00,
2013-03-23 05:45:00,27.0,-11.0,30.12,ENE,69,0.0,0.0,18,0.00,OVC,,0.00,WeatherDisplay:10.37,2013-03-23 10:45:00,
2013-03-23 05:50:00,26.8,-11.2,30.12,ENE,70,0.0,0.0,18,0.00,OVC,,0.00,WeatherDisplay:10.37,2013-03-23 10:50:00,
2013-03-23 05:55:00,26.6,-10.2,30.12,ENE,69,0.0,0.0,19,0.00,OVC,,0.00,WeatherDisplay:10.37,2013-03-23 10:55:00,
2013-03-23 06:00:00,26.6,-10.2,30.12,ENE,69,0.0,0.0,19,0.00,OVC,,0.00,WeatherDisplay:10.37,2013-03-23 11:00:00,
2013-03-23 06:05:00,26.6,-10.2,30.12,ENE,69,0.0,0.0,19,0.00,OVC,,0.00,WeatherDisplay:10.37,2013-03-23 11:05:00,
2013-03-23 06:10:00,26.4,-10.4,30.12,ENE,70,0.0,0.0,19,0.00,BKN,OVC,0.00,WeatherDisplay:10.37,2013-03-23 11:10:00,
2013-03-23 06:15:00,26.4,-8.3,30.12,ENE,69,0.0,0.0,21,0.00,BKN,OVC,0.00,WeatherDisplay:10.37,2013-03-23 11:15:00,
2013-03-23 06:20:00,26.4,-8.3,30.12,ENE,70,0.0,0.0,21,0.00,BKN,OVC,0.00,WeatherDisplay:10.37,2013-03-23 11:20:00,
2013-03-23 06:25:00,26.2,-8.5,30.12,ENE,72,0.0,0.0,21,0.00,BKN,OVC,0.00,WeatherDisplay:10.37,2013-03-23 11:25:00,
2013-03-23 06:30:00,26.2,-8.5,30.15,North,353,0.0,0.0,21,0.00,BKN,OVC,0.00,WeatherDisplay:10.37,2013-03-23 11:30:00,
2013-03-23 06:35:00,26.1,-8.6,30.15,North,357,0.0,0.0,21,0.00,BKN,OVC,0.00,WeatherDisplay:10.37,2013-03-23 11:35:00,
2013-03-23 06:40:00,26.1,-8.6,30.15,North,0,0.0,0.0,21,0.00,BKN,OVC,0.00,WeatherDisplay:10.37,2013-03-23 11:40:00,
2013-03-23 06:45:00,26.1,-5.9,30.15,North,0,0.0,0.0,24,0.00,BKN,OVC,0.00,WeatherDisplay:10.37,2013-03-23 11:45:00,
2013-03-23 06:50:00,26.1,-5.9,30.15,North,0,0.0,0.0,24,0.00,BKN,OVC,0.00,WeatherDisplay:10.37,2013-03-23 11:50:00,
2013-03-23 06:55:00,26.1,-5.9,30.15,North,1,0.0,0.0,24,0.00,BKN,OVC,0.00,WeatherDisplay:10.37,2013-03-23 11:55:00,
2013-03-23 07:00:00,26.1,-5.9,30.12,NNE,28,0.0,0.0,24,0.00,BKN,OVC,0.00,WeatherDisplay:10.37,2013-03-23 12:00:00,
2013-03-23 07:05:00,26.1,-5.9,30.12,NE,44,0.0,0.0,24,0.00,BKN,OVC,0.00,WeatherDisplay:10.37,2013-03-23 12:05:00,
2013-03-23 07:10:00,26.1,-5.9,30.12,NNE,31,0.0,0.0,24,0.00,FEW,OVC,0.00,WeatherDisplay:10.37,2013-03-23 12:10:00,
2013-03-23 07:15:00,26.2,-4.1,30.15,NNE,24,0.0,0.0,26,0.00,FEW,OVC,0.00,WeatherDisplay:10.37,2013-03-23 12:15:00,
2013-03-23 07:20:00,26.2,-4.1,30.15,NNE,25,0.0,0.0,26,0.00,FEW,OVC,0.00,WeatherDisplay:10.37,2013-03-23 12:20:00,
2013-03-23 07:25:00,26.2,-4.1,30.15,NNE,23,0.0,0.0,26,0.00,FEW,OVC,0.00,WeatherDisplay:10.37,2013-03-23 12:25:00,
2013-03-23 07:30:00,26.2,-4.1,30.15,NNE,23,0.0,0.0,26,0.00,FEW,OVC,0.00,WeatherDisplay:10.37,2013-03-23 12:30:00,
2013-03-23 07:35:00,26.4,-3.9,30.15,NNE,25,0.0,0.0,26,0.00,FEW,OVC,0.00,WeatherDisplay:10.37,2013-03-23 12:35:00,
2013-03-23 07:40:00,26.6,-3.7,30.15,NNE,25,0.0,0.0,26,0.00,FEW,OVC,0.00,WeatherDisplay:10.37,2013-03-23 12:40:00,
2013-03-23 07:45:00,26.8,-3.6,30.15,NNE,25,0.0,0.0,26,0.00,FEW,OVC,0.00,WeatherDisplay:10.37,2013-03-23 12:45:00,
2013-03-23 07:50:00,27.0,-3.4,30.15,NNE,25,0.0,0.0,26,0.00,FEW,OVC,0.00,WeatherDisplay:10.37,2013-03-23 12:50:00,
2013-03-23 07:55:00,27.3,-3.1,30.15,NNE,24,0.0,0.0,26,0.00,FEW,OVC,0.00,WeatherDisplay:10.37,2013-03-23 12:55:00,
2013-03-23 08:00:00,27.7,-1.2,30.15,NW,326,0.0,0.0,28,0.00,FEW,OVC,0.00,WeatherDisplay:10.37,2013-03-23 13:00:00,
2013-03-23 08:05:00,28.0,-0.9,30.15,NNE,29,0.0,0.0,28,0.00,FEW,OVC,0.00,WeatherDisplay:10.37,2013-03-23 13:05:00,
2013-03-23 08:10:00,28.6,-0.5,30.15,NNE,31,0.0,0.0,28,0.00,BKN,OVC,0.00,WeatherDisplay:10.37,2013-03-23 13:10:00,
2013-03-23 08:15:00,29.1,0.0,30.18,NE,38,0.0,0.0,28,0.00,BKN,OVC,0.00,WeatherDisplay:10.37,2013-03-23 13:15:00,
2013-03-23 08:20:00,30.0,-1.6,30.18,NE,39,0.0,0.0,25,0.00,BKN,OVC,0.00,WeatherDisplay:10.37,2013-03-23 13:20:00,
2013-03-23 08:25:00,30.6,-1.2,30.18,NNE,32,0.0,0.0,25,0.00,BKN,OVC,0.00,WeatherDisplay:10.37,2013-03-23 13:25:00,
2013-03-23 08:30:00,30.7,-2.8,30.18,NNE,15,0.0,0.0,23,0.00,BKN,OVC,0.00,WeatherDisplay:10.37,2013-03-23 13:30:00,
2013-03-23 08:35:00,31.1,-2.5,30.18,NNE,22,0.0,0.0,23,0.00,BKN,OVC,0.00,WeatherDisplay:10.37,2013-03-23 13:35:00,
2013-03-23 08:40:00,31.3,-5.2,30.18,NE,48,0.0,0.0,20,0.00,BKN,OVC,0.00,WeatherDisplay:10.37,2013-03-23 13:40:00,
2013-03-23 08:45:00,32.0,-4.6,30.18,NE,35,0.0,0.0,20,0.00,BKN,OVC,0.00,WeatherDisplay:10.37,2013-03-23 13:45:00,
2013-03-23 08:50:00,32.4,-4.3,30.18,NE,36,0.0,0.0,20,0.00,BKN,OVC,0.00,WeatherDisplay:10.37,2013-03-23 13:50:00,
2013-03-23 08:55:00,32.7,-6.2,30.18,ENE,70,0.0,0.0,18,0.00,BKN,OVC,0.00,WeatherDisplay:10.37,2013-03-23 13:55:00,
2013-03-23 09:00:00,33.3,-5.8,30.15,NNE,23,0.0,0.0,18,0.00,BKN,OVC,0.00,WeatherDisplay:10.37,2013-03-23 14:00:00,
2013-03-23 09:05:00,33.6,-5.5,30.15,NNE,20,3.5,0.0,18,0.00,BKN,OVC,0.00,WeatherDisplay:10.37,2013-03-23 14:05:00,
2013-03-23 09:10:00,33.8,-6.5,30.15,NNE,27,0.0,0.0,17,0.00,CLR,OVC,0.00,WeatherDisplay:10.37,2013-03-23 14:10:00,
2013-03-23 09:16:00,34.0,-6.4,30.18,NNE,28,0.0,0.0,17,0.00,CLR,OVC,0.00,WeatherDisplay:10.37,2013-03-23 14:16:00,
2013-03-23 09:21:00,34.3,-6.1,30.18,ENE,77,0.0,0.0,17,0.00,CLR,OVC,0.00,WeatherDisplay:10.37,2013-03-23 14:21:00,
2013-03-23 09:26:00,34.7,-5.8,30.18,NNE,17,0.0,0.0,17,0.00,CLR,OVC,0.00,WeatherDisplay:10.37,2013-03-23 14:26:00,
2013-03-23 09:31:00,34.9,-8.2,30.18,NE,48,2.3,0.0,15,0.00,CLR,OVC,0.00,WeatherDisplay:10.37,2013-03-23 14:31:00,
2013-03-23 09:36:00,35.1,-8.0,30.18,NE,39,0.0,0.0,15,0.00,CLR,OVC,0.00,WeatherDisplay:10.37,2013-03-23 14:36:00,
2013-03-23 09:41:00,35.2,-7.9,30.18,NE,38,5.8,5.8,15,0.00,CLR,OVC,0.00,WeatherDisplay:10.37,2013-03-23 14:41:00,
2013-03-23 09:46:00,35.6,-9.0,30.18,North,0,4.6,4.6,14,0.00,CLR,OVC,0.00,WeatherDisplay:10.37,2013-03-23 14:46:00,
2013-03-23 09:51:00,35.8,-8.9,30.18,NNE,23,0.0,0.0,14,0.00,CLR,OVC,0.00,WeatherDisplay:10.37,2013-03-23 14:51:00,
2013-03-23 09:56:00,36.0,-8.7,30.18,ENE,67,0.0,0.0,14,0.00,CLR,OVC,0.00,WeatherDisplay:10.37,2013-03-23 14:56:00,
2013-03-23 10:01:00,36.3,-8.4,30.18,ESE,110,5.8,5.8,14,0.00,CLR,OVC,0.00,WeatherDisplay:10.37,2013-03-23 15:01:00,
2013-03-23 10:06:00,36.7,-8.1,30.18,SE,133,0.0,0.0,14,0.00,CLR,OVC,0.00,WeatherDisplay:10.37,2013-03-23 15:06:00,
2013-03-23 10:12:00,37.4,-7.6,30.18,ENE,64,0.0,0.0,14,0.00,CLR,OVC,0.00,WeatherDisplay:10.37,2013-03-23 15:12:00,
2013-03-23 10:17:00,37.6,-7.4,30.18,ESE,106,5.8,5.8,14,0.00,CLR,OVC,0.00,WeatherDisplay:10.37,2013-03-23 15:17:00,
2013-03-23 10:22:00,37.9,-7.1,30.18,East,85,5.8,0.0,14,0.00,CLR,OVC,0.00,WeatherDisplay:10.37,2013-03-23 15:22:00,
2013-03-23 10:27:00,38.3,-6.8,30.18,NE,54,3.5,0.0,14,0.00,CLR,OVC,0.00,WeatherDisplay:10.37,2013-03-23 15:27:00,
2013-03-23 10:32:00,38.3,-6.8,30.18,NNE,22,4.6,4.6,14,0.00,CLR,OVC,0.00,WeatherDisplay:10.37,2013-03-23 15:32:00,
2013-03-23 10:37:00,38.1,-7.0,30.18,NE,41,5.8,5.8,14,0.00,CLR,OVC,0.00,WeatherDisplay:10.37,2013-03-23 15:37:00,
2013-03-23 10:42:00,38.1,-7.0,30.15,ENE,76,8.1,8.1,14,0.00,CLR,OVC,0.00,WeatherDisplay:10.37,2013-03-23 15:42:00,
2013-03-23 10:47:00,38.5,-6.7,30.15,ESE,115,10.4,10.4,14,0.00,CLR,OVC,0.00,WeatherDisplay:10.37,2013-03-23 15:47:00,
2013-03-23 10:52:00,38.5,-6.7,30.15,ESE,123,5.8,5.8,14,0.00,CLR,OVC,0.00,WeatherDisplay:10.37,2013-03-23 15:52:00,
2013-03-23 10:57:00,38.5,-6.7,30.15,ENE,61,5.8,5.8,14,0.00,CLR,OVC,0.00,WeatherDisplay:10.37,2013-03-23 15:57:00,
2013-03-23 11:02:00,38.8,-6.4,30.15,East,82,3.5,0.0,14,0.00,CLR,OVC,0.00,WeatherDisplay:10.37,2013-03-23 16:02:00,
2013-03-23 11:07:00,39.2,-7.6,30.15,East,101,8.1,8.1,13,0.00,CLR,OVC,0.00,WeatherDisplay:10.37,2013-03-23 16:07:00,
2013-03-23 11:12:00,39.4,-7.5,30.18,ENE,76,8.1,8.1,13,0.00,CLR,OVC,0.00,WeatherDisplay:10.37,2013-03-23 16:12:00,
2013-03-23 11:17:00,39.6,-7.4,30.18,ENE,65,9.2,9.2,13,0.00,CLR,OVC,0.00,WeatherDisplay:10.37,2013-03-23 16:17:00,
2013-03-23 11:22:00,39.6,-7.4,30.18,ESE,106,7.6,7.6,13,0.00,CLR,OVC,0.00,WeatherDisplay:10.37,2013-03-23 16:22:00,
2013-03-23 11:27:00,39.7,-7.2,30.18,NNE,16,3.5,3.5,13,0.00,CLR,OVC,0.00,WeatherDisplay:10.37,2013-03-23 16:27:00,
2013-03-23 11:32:00,39.9,-7.1,30.18,ESE,105,8.1,8.1,13,0.00,CLR,OVC,0.00,WeatherDisplay:10.37,2013-03-23 16:32:00,
2013-03-23 11:38:00,40.5,-6.6,30.18,ENE,72,8.1,8.1,13,0.00,CLR,OVC,0.00,WeatherDisplay:10.37,2013-03-23 16:38:00,
2013-03-23 11:43:00,40.6,-6.5,30.15,East,79,6.9,6.9,13,0.00,CLR,OVC,0.00,WeatherDisplay:10.37,2013-03-23 16:43:00,
2013-03-23 11:48:00,40.6,-6.5,30.15,NNE,30,0.0,0.0,13,0.00,CLR,OVC,0.00,WeatherDisplay:10.37,2013-03-23 16:48:00,
2013-03-23 11:53:00,40.8,-6.3,30.15,East,91,8.1,0.0,13,0.00,CLR,OVC,0.00,WeatherDisplay:10.37,2013-03-23 16:53:00,
2013-03-23 11:58:00,41.2,-6.1,30.15,East,97,11.5,11.5,13,0.00,CLR,OVC,0.00,WeatherDisplay:10.37,2013-03-23 16:58:00,
2013-03-23 12:03:00,41.4,-5.9,30.15,ENE,75,3.5,3.5,13,0.00,CLR,OVC,0.00,WeatherDisplay:10.37,2013-03-23 17:03:00,
2013-03-23 12:08:00,42.1,-5.3,30.15,NE,48,0.0,0.0,13,0.00,CLR,OVC,0.00,WeatherDisplay:10.37,2013-03-23 17:08:00,
2013-03-23 12:13:00,42.3,-5.2,30.15,East,96,7.6,7.6,13,0.00,CLR,OVC,0.00,WeatherDisplay:10.37,2013-03-23 17:13:00,
2013-03-23 12:18:00,42.4,-5.0,30.15,NE,42,8.1,8.1,13,0.00,CLR,OVC,0.00,WeatherDisplay:10.37,2013-03-23 17:18:00,
2013-03-23 12:23:00,42.3,-5.2,30.15,NNW,328,5.8,5.8,13,0.00,CLR,OVC,0.00,WeatherDisplay:10.37,2013-03-23 17:23:00,
2013-03-23 12:28:00,41.9,-5.5,30.15,NE,50,9.2,9.2,13,0.00,CLR,OVC,0.00,WeatherDisplay:10.37,2013-03-23 17:28:00,
2013-03-23 12:33:00,42.3,-5.2,30.15,NE,43,8.1,8.1,13,0.00,CLR,OVC,0.00,WeatherDisplay:10.37,2013-03-23 17:33:00,
2013-03-23 12:38:00,42.8,-4.8,30.15,East,82,8.1,8.1,13,0.00,CLR,OVC,0.00,WeatherDisplay:10.37,2013-03-23 17:38:00,
2013-03-23 12:43:00,42.8,-4.8,30.15,NE,38,5.8,5.8,13,0.00,CLR,OVC,0.00,WeatherDisplay:10.37,2013-03-23 17:43:00,
2013-03-23 12:49:00,42.4,-5.0,30.15,North,1,0.0,0.0,13,0.00,CLR,OVC,0.00,WeatherDisplay:10.37,2013-03-23 17:49:00,
2013-03-23 12:54:00,42.8,-4.8,30.15,ENE,64,5.8,0.0,13,0.00,CLR,OVC,0.00,WeatherDisplay:10.37,2013-03-23 17:54:00,
2013-03-23 12:59:00,42.8,-4.8,30.15,NNW,343,0.0,0.0,13,0.00,CLR,OVC,0.00,WeatherDisplay:10.37,2013-03-23 17:59:00,
2013-03-23 13:04:00,42.1,-5.3,30.15,East,82,0.0,0.0,13,0.00,CLR,OVC,0.00,WeatherDisplay:10.37,2013-03-23 18:04:00,
2013-03-23 13:09:00,41.7,-5.6,30.15,ESE,111,5.8,0.0,13,0.00,CLR,OVC,0.00,WeatherDisplay:10.37,2013-03-23 18:09:00,
2013-03-23 13:14:00,41.7,-5.6,30.15,ENE,77,5.8,5.8,13,0.00,CLR,OVC,0.00,WeatherDisplay:10.37,2013-03-23 18:14:00,
2013-03-23 13:19:00,42.3,-5.2,30.15,ESE,105,8.1,8.1,13,0.00,CLR,OVC,0.00,WeatherDisplay:10.37,2013-03-23 18:19:00,
2013-03-23 13:24:00,42.1,-5.3,30.15,NNE,22,0.0,0.0,13,0.00,CLR,OVC,0.00,WeatherDisplay:10.37,2013-03-23 18:24:00,
2013-03-23 13:29:00,42.1,-5.3,30.15,NNE,27,6.9,6.9,13,0.00,CLR,OVC,0.00,WeatherDisplay:10.37,2013-03-23 18:29:00,
2013-03-23 13:34:00,42.1,-5.3,30.15,East,80,0.0,0.0,13,0.00,CLR,OVC,0.00,WeatherDisplay:10.37,2013-03-23 18:34:00,
2013-03-23 13:39:00,42.3,-5.2,30.15,ESE,119,0.0,0.0,13,0.00,CLR,OVC,0.00,WeatherDisplay:10.37,2013-03-23 18:39:00,
2013-03-23 13:44:00,42.3,-5.2,30.15,East,79,0.0,0.0,13,0.00,CLR,OVC,0.00,WeatherDisplay:10.37,2013-03-23 18:44:00,
2013-03-23 13:49:00,41.7,-5.6,30.15,East,86,0.0,0.0,13,0.00,CLR,OVC,0.00,WeatherDisplay:10.37,2013-03-23 18:49:00,
2013-03-23 13:54:00,41.9,-5.5,30.15,East,86,0.0,0.0,13,0.00,CLR,OVC,0.00,WeatherDisplay:10.37,2013-03-23 18:54:00,
2013-03-23 13:59:00,42.4,-5.0,30.15,ENE,75,0.0,0.0,13,0.00,CLR,OVC,0.00,WeatherDisplay:10.37,2013-03-23 18:59:00,
2013-03-23 14:04:00,42.8,-4.8,30.15,NNW,338,0.0,0.0,13,0.00,CLR,OVC,0.00,WeatherDisplay:10.37,2013-03-23 19:04:00,
2013-03-23 14:09:00,43.5,-4.2,30.15,East,100,0.0,0.0,13,0.00,CLR,OVC,0.00,WeatherDisplay:10.37,2013-03-23 19:09:00,
2013-03-23 14:14:00,44.2,-3.6,30.15,NNE,33,0.0,0.0,13,0.00,CLR,OVC,0.00,WeatherDisplay:10.37,2013-03-23 19:14:00,
2013-03-23 14:19:00,44.2,-3.6,30.15,ENE,77,3.5,0.0,13,0.00,CLR,OVC,0.00,WeatherDisplay:10.37,2013-03-23 19:19:00,
2013-03-23 14:24:00,44.1,-3.8,30.15,ENE,64,0.0,0.0,13,0.00,CLR,OVC,0.00,WeatherDisplay:10.37,2013-03-23 19:24:00,
2013-03-23 14:29:00,44.2,-3.6,30.15,NNE,12,10.4,10.4,13,0.00,CLR,OVC,0.00,WeatherDisplay:10.37,2013-03-23 19:29:00,
2013-03-23 14:34:00,44.1,-3.8,30.15,ENE,58,5.8,5.8,13,0.00,CLR,OVC,0.00,WeatherDisplay:10.37,2013-03-23 19:34:00,
2013-03-23 14:39:00,44.2,-3.6,30.15,NNE,30,0.0,0.0,13,0.00,CLR,OVC,0.00,WeatherDisplay:10.37,2013-03-23 19:39:00,
2013-03-23 14:44:00,44.6,-5.0,30.12,ENE,62,0.0,0.0,12,0.00,CLR,OVC,0.00,WeatherDisplay:10.37,2013-03-23 19:44:00,
2013-03-23 14:49:00,45.1,-4.6,30.12,ESE,107,5.8,5.8,12,0.00,CLR,OVC,0.00,WeatherDisplay:10.37,2013-03-23 19:49:00,
2013-03-23 14:55:00,45.3,-4.4,30.12,NNW,328,0.0,0.0,12,0.00,CLR,OVC,0.00,WeatherDisplay:10.37,2013-03-23 19:55:00,
2013-03-23 15:00:00,45.3,-4.4,30.12,NE,51,5.8,0.0,12,0.00,CLR,OVC,0.00,WeatherDisplay:10.37,2013-03-23 20:00:00,
2013-03-23 15:05:00,45.1,-4.6,30.12,East,93,5.8,0.0,12,0.00,CLR,OVC,0.00,WeatherDisplay:10.37,2013-03-23 20:05:00,
2013-03-23 15:10:00,45.1,-4.6,30.12,ENE,71,0.0,0.0,12,0.00,CLR,OVC,0.00,WeatherDisplay:10.37,2013-03-23 20:10:00,
2013-03-23 15:15:00,44.8,-4.9,30.12,NNW,333,0.0,0.0,12,0.00,CLR,OVC,0.00,WeatherDisplay:10.37,2013-03-23 20:15:00,
2013-03-23 15:20:00,44.8,-4.9,30.12,NE,39,0.0,0.0,12,0.00,CLR,OVC,0.00,WeatherDisplay:10.37,2013-03-23 20:20:00,
2013-03-23 15:25:00,44.8,-4.9,30.12,North,357,0.0,0.0,12,0.00,CLR,OVC,0.00,WeatherDisplay:10.37,2013-03-23 20:25:00,
2013-03-23 15:30:00,44.8,-4.9,30.09,NNE,17,0.0,0.0,12,0.00,CLR,OVC,0.00,WeatherDisplay:10.37,2013-03-23 20:30:00,
2013-03-23 15:35:00,44.8,-4.9,30.09,NE,37,0.0,0.0,12,0.00,CLR,OVC,0.00,WeatherDisplay:10.37,2013-03-23 20:35:00,
2013-03-23 15:40:00,45.3,-4.4,30.09,NNW,344,0.0,0.0,12,0.00,CLR,OVC,0.00,WeatherDisplay:10.37,2013-03-23 20:40:00,
2013-03-23 15:45:00,45.5,-4.3,30.09,NE,51,8.1,0.0,12,0.00,CLR,OVC,0.00,WeatherDisplay:10.37,2013-03-23 20:45:00,
2013-03-23 15:50:00,45.7,-4.1,30.09,NE,36,0.0,0.0,12,0.00,CLR,OVC,0.00,WeatherDisplay:10.37,2013-03-23 20:50:00,
2013-03-23 15:55:00,45.7,-4.1,30.09,NNE,25,8.1,8.1,12,0.00,CLR,OVC,0.00,WeatherDisplay:10.37,2013-03-23 20:55:00,
2013-03-23 16:00:00,44.8,-4.9,30.09,NNE,25,10.4,0.0,12,0.00,CLR,OVC,0.00,WeatherDisplay:10.37,2013-03-23 21:00:00,
2013-03-23 16:05:00,44.6,-5.0,30.09,NNE,29,4.6,0.0,12,0.00,CLR,OVC,0.00,WeatherDisplay:10.37,2013-03-23 21:05:00,
2013-03-23 16:10:00,44.6,-5.0,30.09,NNE,28,0.0,0.0,12,0.00,CLR,OVC,0.00,WeatherDisplay:10.37,2013-03-23 21:10:00,
2013-03-23 16:15:00,45.0,-4.7,30.06,NNE,32,5.8,5.8,12,0.00,CLR,OVC,0.00,WeatherDisplay:10.37,2013-03-23 21:15:00,
2013-03-23 16:20:00,44.8,-4.9,30.06,NNE,30,8.1,8.1,12,0.00,CLR,OVC,0.00,WeatherDisplay:10.37,2013-03-23 21:20:00,
2013-03-23 16:25:00,44.2,-3.6,30.06,ENE,58,5.8,0.0,13,0.00,CLR,OVC,0.00,WeatherDisplay:10.37,2013-03-23 21:25:00,
2013-03-23 16:30:00,44.1,-3.8,30.06,ENE,57,2.3,0.0,13,0.00,CLR,OVC,0.00,WeatherDisplay:10.37,2013-03-23 21:30:00,
2013-03-23 16:35:00,43.7,-4.0,30.06,NNE,25,5.8,0.0,13,0.00,CLR,OVC,0.00,WeatherDisplay:10.37,2013-03-23 21:35:00,
2013-03-23 16:40:00,43.3,-4.3,30.06,East,79,4.6,0.0,13,0.00,CLR,OVC,0.00,WeatherDisplay:10.37,2013-03-23 21:40:00,
2013-03-23 16:45:00,43.0,-4.6,30.06,East,89,5.8,0.0,13,0.00,CLR,OVC,0.00,WeatherDisplay:10.37,2013-03-23 21:45:00,
2013-03-23 16:50:00,42.6,-4.9,30.06,NNE,16,0.0,0.0,13,0.00,CLR,OVC,0.00,WeatherDisplay:10.37,2013-03-23 21:50:00,
2013-03-23 16:55:00,42.1,-5.3,30.06,NNE,24,0.0,0.0,13,0.00,CLR,OVC,0.00,WeatherDisplay:10.37,2013-03-23 21:55:00,
2013-03-23 17:00:00,41.9,-5.5,30.06,ENE,69,8.1,0.0,13,0.00,CLR,OVC,0.00,WeatherDisplay:10.37,2013-03-23 22:00:00,
2013-03-23 17:05:00,41.7,-5.6,30.06,ENE,72,8.1,0.0,13,0.00,CLR,OVC,0.00,WeatherDisplay:10.37,2013-03-23 22:05:00,
2013-03-23 17:10:00,41.7,-5.6,30.06,North,6,0.0,0.0,13,0.00,CLR,OVC,0.00,WeatherDisplay:10.37,2013-03-23 22:10:00,
2013-03-23 17:15:00,41.5,-5.8,30.06,ENE,64,4.6,0.0,13,0.00,CLR,OVC,0.00,WeatherDisplay:10.37,2013-03-23 22:15:00,
2013-03-23 17:20:00,41.5,-5.8,30.06,NE,34,0.0,0.0,13,0.00,CLR,OVC,0.00,WeatherDisplay:10.37,2013-03-23 22:20:00,
2013-03-23 17:25:00,41.7,-5.6,30.06,ENE,69,3.5,0.0,13,0.00,CLR,OVC,0.00,WeatherDisplay:10.37,2013-03-23 22:25:00,
2013-03-23 17:30:00,42.1,-5.3,30.06,NE,44,5.8,5.8,13,0.00,CLR,OVC,0.00,WeatherDisplay:10.37,2013-03-23 22:30:00,
2013-03-23 17:35:00,42.1,-5.3,30.06,NE,54,0.0,0.0,13,0.00,CLR,OVC,0.00,WeatherDisplay:10.37,2013-03-23 22:35:00,
2013-03-23 17:40:00,41.9,-5.5,30.06,ENE,74,6.9,0.0,13,0.00,CLR,OVC,0.00,WeatherDisplay:10.37,2013-03-23 22:40:00,
2013-03-23 17:45:00,41.5,-5.8,30.06,North,353,0.0,0.0,13,0.00,CLR,OVC,0.00,WeatherDisplay:10.37,2013-03-23 22:45:00,
2013-03-23 17:50:00,41.4,-5.9,30.06,NE,34,0.0,0.0,13,0.00,CLR,OVC,0.00,WeatherDisplay:10.37,2013-03-23 22:50:00,
2013-03-23 17:55:00,41.0,-6.2,30.06,NE,43,0.0,0.0,13,0.00,CLR,OVC,0.00,WeatherDisplay:10.37,2013-03-23 22:55:00,
2013-03-23 18:00:00,40.6,-6.5,30.06,ENE,78,0.0,0.0,13,0.00,CLR,OVC,0.00,WeatherDisplay:10.37,2013-03-23 23:00:00,
2013-03-23 18:05:00,40.5,-6.6,30.06,NNE,22,5.8,5.8,13,0.00,CLR,OVC,0.00,WeatherDisplay:10.37,2013-03-23 23:05:00,
2013-03-23 18:10:00,40.3,-6.8,30.06,NNE,22,0.0,0.0,13,0.00,CLR,OVC,0.00,WeatherDisplay:10.37,2013-03-23 23:10:00,
2013-03-23 18:15:00,40.1,-6.9,30.06,NE,38,6.9,6.9,13,0.00,CLR,OVC,0.00,WeatherDisplay:10.37,2013-03-23 23:15:00,
2013-03-23 18:20:00,39.9,-7.1,30.06,NNE,18,8.1,8.1,13,0.00,CLR,OVC,0.00,WeatherDisplay:10.37,2013-03-23 23:20:00,
2013-03-23 18:26:00,39.7,-7.2,30.06,NNE,20,5.8,5.8,13,0.00,CLR,OVC,0.00,WeatherDisplay:10.37,2013-03-23 23:26:00,
2013-03-23 18:31:00,39.6,-7.4,30.06,NNE,24,4.6,4.6,13,0.00,CLR,OVC,0.00,WeatherDisplay:10.37,2013-03-23 23:31:00,
2013-03-23 18:36:00,39.4,-7.5,30.06,North,353,0.0,0.0,13,0.00,CLR,OVC,0.00,WeatherDisplay:10.37,2013-03-23 23:36:00,
2013-03-23 18:41:00,39.2,-7.6,30.06,NE,35,5.8,5.8,13,0.00,CLR,OVC,0.00,WeatherDisplay:10.37,2013-03-23 23:41:00,
2013-03-23 18:46:00,39.0,-6.3,30.06,NE,41,8.1,0.0,14,0.00,CLR,OVC,0.00,WeatherDisplay:10.37,2013-03-23 23:46:00,
2013-03-23 18:51:00,38.8,-6.4,30.06,NE,40,0.0,0.0,14,0.00,CLR,OVC,0.00,WeatherDisplay:10.37,2013-03-23 23:51:00,
2013-03-23 18:56:00,38.7,-6.5,30.06,North,4,3.5,0.0,14,0.00,CLR,OVC,0.00,WeatherDisplay:10.37,2013-03-23 23:56:00,
2013-03-23 19:01:00,38.5,-6.7,30.06,NE,40,5.8,0.0,14,0.00,CLR,OVC,0.00,WeatherDisplay:10.37,2013-03-24 00:01:00,
2013-03-23 19:06:00,38.3,-6.8,30.06,North,9,8.1,8.1,14,0.00,CLR,OVC,0.00,WeatherDisplay:10.37,2013-03-24 00:06:00,
2013-03-23 19:11:00,38.1,-7.0,30.06,NE,40,8.1,8.1,14,0.00,CLR,OVC,0.00,WeatherDisplay:10.37,2013-03-24 00:11:00,
2013-03-23 19:16:00,37.9,-7.1,30.06,North,357,10.4,10.4,14,0.00,CLR,OVC,0.00,WeatherDisplay:10.37,2013-03-24 00:16:00,
2013-03-23 19:21:00,37.6,-7.4,30.06,NNE,27,9.2,9.2,14,0.00,CLR,OVC,0.00,WeatherDisplay:10.37,2013-03-24 00:21:00,
2013-03-23 19:26:00,37.4,-7.6,30.06,NE,49,5.8,5.8,14,0.00,CLR,OVC,0.00,WeatherDisplay:10.37,2013-03-24 00:26:00,
2013-03-23 19:31:00,37.4,-7.6,30.06,NE,50,5.8,0.0,14,0.00,CLR,OVC,0.00,WeatherDisplay:10.37,2013-03-24 00:31:00,
2013-03-23 19:36:00,37.2,-7.7,30.06,NNW,341,3.5,0.0,14,0.00,CLR,OVC,0.00,WeatherDisplay:10.37,2013-03-24 00:36:00,
2013-03-23 19:41:00,37.0,-7.9,30.06,ENE,62,5.8,5.8,14,0.00,CLR,OVC,0.00,WeatherDisplay:10.37,2013-03-24 00:41:00,
2013-03-23 19:46:00,37.0,-7.9,30.06,NNE,26,2.3,2.3,14,0.00,CLR,OVC,0.00,WeatherDisplay:10.37,2013-03-24 00:46:00,
2013-03-23 19:51:00,36.9,-8.0,30.06,NNW,348,3.5,3.6,14,0.00,CLR,OVC,0.00,WeatherDisplay:10.37,2013-03-24 00:51:00,
2013-03-23 19:56:00,36.7,-8.1,30.06,NNE,15,3.5,0.0,14,0.00,CLR,OVC,0.00,WeatherDisplay:10.37,2013-03-24 00:56:00,
2013-03-23 20:01:00,36.7,-8.1,30.09,NE,41,0.0,0.0,14,0.00,CLR,OVC,0.00,WeatherDisplay:10.37,2013-03-24 01:01:00,
2013-03-23 20:06:00,36.5,-8.3,30.09,NNE,31,5.8,5.8,14,0.00,CLR,OVC,0.00,WeatherDisplay:10.37,2013-03-24 01:06:00,
2013-03-23 20:11:00,36.3,-8.4,30.09,NNE,28,0.0,0.0,14,0.00,SCT,OVC,0.00,WeatherDisplay:10.37,2013-03-24 01:11:00,
2013-03-23 20:16:00,36.3,-8.4,30.09,NNE,25,5.8,5.8,14,0.00,SCT,OVC,0.00,WeatherDisplay:10.37,2013-03-24 01:16:00,
2013-03-23 20:21:00,36.3,-8.4,30.09,NNE,20,3.5,3.5,14,0.00,SCT,OVC,0.00,WeatherDisplay:10.37,2013-03-24 01:21:00,
2013-03-23 20:26:00,36.1,-8.6,30.09,North,7,8.1,0.0,14,0.00,SCT,OVC,0.00,WeatherDisplay:10.37,2013-03-24 01:26:00,
2013-03-23 20:31:00,36.1,-8.6,30.06,NNE,30,5.8,5.8,14,0.00,SCT,OVC,0.00,WeatherDisplay:10.37,2013-03-24 01:31:00,
2013-03-23 20:36:00,36.0,-8.7,30.06,NNE,25,5.8,0.0,14,0.00,SCT,OVC,0.00,WeatherDisplay:10.37,2013-03-24 01:36:00,
2013-03-23 20:41:00,36.0,-8.7,30.06,NE,54,4.5,0.0,14,0.00,SCT,OVC,0.00,WeatherDisplay:10.37,2013-03-24 01:41:00,
2013-03-23 20:46:00,35.8,-8.9,30.09,NNE,27,5.8,5.8,14,0.00,SCT,OVC,0.00,WeatherDisplay:10.37,2013-03-24 01:46:00,
2013-03-23 20:51:00,35.8,-8.9,30.09,North,353,0.0,0.0,14,0.00,SCT,OVC,0.00,WeatherDisplay:10.37,2013-03-24 01:51:00,
2013-03-23 20:56:00,35.8,-8.9,30.09,NNE,15,3.5,0.0,14,0.00,SCT,OVC,0.00,WeatherDisplay:10.37,2013-03-24 01:56:00,
2013-03-23 21:01:00,35.8,-8.9,30.09,NNE,23,2.3,0.0,14,0.00,SCT,OVC,0.00,WeatherDisplay:10.37,2013-03-24 02:01:00,
2013-03-23 21:06:00,35.6,-9.0,30.09,NNE,27,5.8,5.8,14,0.00,SCT,OVC,0.00,WeatherDisplay:10.37,2013-03-24 02:06:00,
2013-03-23 21:11:00,35.6,-9.0,30.09,NNE,12,8.1,8.1,14,0.00,BKN,OVC,0.00,WeatherDisplay:10.37,2013-03-24 02:11:00,
2013-03-23 21:16:00,35.6,-9.0,30.09,NE,42,0.0,0.0,14,0.00,BKN,OVC,0.00,WeatherDisplay:10.37,2013-03-24 02:16:00,
2013-03-23 21:21:00,35.6,-9.0,30.09,NNW,345,5.8,5.8,14,0.00,BKN,OVC,0.00,WeatherDisplay:10.37,2013-03-24 02:21:00,
2013-03-23 21:26:00,35.4,-7.8,30.09,NE,51,8.1,8.1,15,0.00,BKN,OVC,0.00,WeatherDisplay:10.37,2013-03-24 02:26:00,
2013-03-23 21:31:00,35.4,-7.8,30.09,NNE,16,2.3,0.0,15,0.00,BKN,OVC,0.00,WeatherDisplay:10.37,2013-03-24 02:31:00,
2013-03-23 21:36:00,35.2,-7.9,30.09,North,7,0.0,0.0,15,0.00,BKN,OVC,0.00,WeatherDisplay:10.37,2013-03-24 02:36:00,
2013-03-23 21:41:00,35.2,-7.9,30.09,North,7,8.1,8.1,15,0.00,BKN,OVC,0.00,WeatherDisplay:10.37,2013-03-24 02:41:00,
2013-03-23 21:47:00,35.1,-8.0,30.09,NE,40,0.0,0.0,15,0.00,BKN,OVC,0.00,WeatherDisplay:10.37,2013-03-24 02:47:00,
2013-03-23 21:52:00,35.1,-8.0,30.09,North,1,3.5,0.0,15,0.00,BKN,OVC,0.00,WeatherDisplay:10.37,2013-03-24 02:52:00,
2013-03-23 21:57:00,35.1,-8.0,30.09,NNE,22,3.5,3.5,15,0.00,BKN,OVC,0.00,WeatherDisplay:10.37,2013-03-24 02:57:00,
2013-03-23 22:02:00,35.1,-8.0,30.06,North,353,2.3,0.0,15,0.00,BKN,OVC,0.00,WeatherDisplay:10.37,2013-03-24 03:02:00,
2013-03-23 22:07:00,34.9,-8.2,30.06,North,357,3.5,0.0,15,0.00,BKN,OVC,0.00,WeatherDisplay:10.37,2013-03-24 03:07:00,
2013-03-23 22:12:00,34.9,-8.2,30.06,NE,43,8.1,8.1,15,0.00,BKN,OVC,0.00,WeatherDisplay:10.37,2013-03-24 03:12:00,
2013-03-23 22:17:00,34.9,-8.2,30.06,NNE,22,8.1,0.0,15,0.00,BKN,OVC,0.00,WeatherDisplay:10.37,2013-03-24 03:17:00,
2013-03-23 22:22:00,34.9,-8.2,30.06,North,353,0.0,0.0,15,0.00,BKN,OVC,0.00,WeatherDisplay:10.37,2013-03-24 03:22:00,
2013-03-23 22:27:00,34.9,-8.2,30.06,NNE,17,5.8,5.8,15,0.00,BKN,OVC,0.00,WeatherDisplay:10.37,2013-03-24 03:27:00,
2013-03-23 22:32:00,34.9,-8.2,30.06,NNE,17,5.4,5.4,15,0.00,BKN,OVC,0.00,WeatherDisplay:10.37,2013-03-24 03:32:00,
2013-03-23 22:37:00,34.7,-8.3,30.06,NNE,14,5.8,5.8,15,0.00,BKN,OVC,0.00,WeatherDisplay:10.37,2013-03-24 03:37:00,
2013-03-23 22:42:00,34.7,-8.3,30.06,North,8,4.6,0.0,15,0.00,BKN,OVC,0.00,WeatherDisplay:10.37,2013-03-24 03:42:00,
2013-03-23 22:47:00,34.7,-8.3,30.06,NNE,31,3.5,0.0,15,0.00,BKN,OVC,0.00,WeatherDisplay:10.37,2013-03-24 03:47:00,
2013-03-23 22:52:00,34.7,-8.3,30.06,North,353,2.3,0.0,15,0.00,BKN,OVC,0.00,WeatherDisplay:10.37,2013-03-24 03:52:00,
2013-03-23 22:57:00,34.7,-8.3,30.06,North,357,3.5,0.0,15,0.00,BKN,OVC,0.00,WeatherDisplay:10.37,2013-03-24 03:57:00,
2013-03-23 23:00:00,34.7,-8.3,30.06,North,349,3.5,0.0,15,0.00,BKN,OVC,0.00,WeatherDisplay:10.37,2013-03-24 04:00:00,
2013-03-23 23:01:00,34.7,-8.3,30.06,North,3,3.5,3.5,15,0.00,BKN,OVC,0.00,WeatherDisplay:10.37,2013-03-24 04:01:00,
2013-03-23 23:02:00,34.7,-8.3,30.06,NE,50,5.8,0.0,15,0.00,BKN,OVC,0.00,WeatherDisplay:10.37,2013-03-24 04:02:00,
2013-03-23 23:07:00,34.5,-8.5,30.06,NNE,22,9.2,9.2,15,0.00,OVC,,0.00,WeatherDisplay:10.37,2013-03-24 04:07:00,
2013-03-23 23:12:00,34.5,-8.5,30.06,North,1,9.2,9.2,15,0.00,OVC,,0.00,WeatherDisplay:10.37,2013-03-24 04:12:00,
2013-03-23 23:17:00,34.7,-8.3,30.06,ENE,67,3.5,0.0,15,0.00,OVC,,0.00,WeatherDisplay:10.37,2013-03-24 04:17:00,
2013-03-23 23:22:00,34.7,-8.3,30.06,NNE,20,3.5,0.0,15,0.00,OVC,,0.00,WeatherDisplay:10.37,2013-03-24 04:22:00,
2013-03-23 23:27:00,34.7,-8.3,30.06,NNE,26,0.0,0.0,15,0.00,OVC,,0.00,WeatherDisplay:10.37,2013-03-24 04:27:00,
2013-03-23 23:32:00,34.5,-8.5,30.06,NNE,26,6.9,6.9,15,0.00,OVC,,0.00,WeatherDisplay:10.37,2013-03-24 04:32:00,
2013-03-23 23:37:00,34.5,-8.5,30.06,NNE,31,8.1,8.1,15,0.00,OVC,,0.00,WeatherDisplay:10.37,2013-03-24 04:37:00,
2013-03-23 23:42:00,34.5,-8.5,30.06,North,357,3.5,3.5,15,0.00,OVC,,0.00,WeatherDisplay:10.37,2013-03-24 04:42:00,
2013-03-23 23:47:00,34.5,-8.5,30.06,North,5,8.1,8.1,15,0.00,OVC,,0.00,WeatherDisplay:10.37,2013-03-24 04:47:00,
2013-03-23 23:52:00,34.3,-8.6,30.06,NNE,24,5.8,5.8,15,0.00,OVC,,0.00,WeatherDisplay:10.37,2013-03-24 04:52:00,
2013-03-23 23:57:00,34.3,-8.6,30.06,NE,38,5.8,0.0,15,0.00,OVC,,0.00,WeatherDisplay:10.37,2013-03-24 04:57:00,